Location: Brunembert
(50.7122°N, 1.8935°E)
Time: 03:37:39
(UTC+00:00)

MetOp-B - Pass Details

Date: 22 April 2021
Orbit: 819 x 822 km, 98.7° (Epoch: 06 May)

Event Time Altitude Azimuth Distance (km) Brightness Sun altitude
Exits shadow 20:09:16 12° 146° (SE) 2,301 5.9 -10.6°
Maximum altitude 20:14:13 59° 69° (ENE) 946 4.3 -11.2°
Drops below altitude 10° 20:19:30 10° 351° (N) 2,429 7.3 -11.9°
Sets 20:21:52 0° 348° (NNW) 3,366 8.2 -12.2°
